User: anonymous   Login
Location: Unspecified
(0.0000°N, 0.0000°E)
Time: 23:42:12
(UTC+00:00)
Language:

Aussat K2 - Orbit

View from above orbital plane
View from above orbital plane
View from above satellite
View from above satellite

Ground track
Ground track

The orbit data is extracted from the following two-line orbital elements,

1 16275U 85109C   15183.77310168 -.00000353  00000-0  00000+0 0  9996
2 16275 014.9245 016.2891 0005321 178.2728 140.3362 00.99951889 98072
Epoch (UTC): 02 July 2015 18:33:15
Eccentricity: 0.0005321
inclination: 14.9245°
perigee height: 35853 km
apogee height: 35898 km
right ascension of ascending node: 16.2891°
argument of perigee: 178.2728°
revolutions per day: 0.99951889
mean anomaly at epoch: 140.3362°
orbit number at epoch: 9807

The dashed part of the orbit path shows where the satellite is in the earth's shadow,  

DLR